Overview Statistics Trail Chart Weather Telemetry Raw packets
 

This is the latest recevied weather packets stored in our database for station/object N1JOV-7. If no packets are shown the sender has not sent any weather packets the latest 10 day(s).

<< 4 5 6 7 8 9 10 >>
Time Temp. Humidity Pressure Rain* Wind** Luminosity Snow
1788544261 27.22° C 64% 1008 hPa 0 mm - - -
1788543661 26.11° C 65% 1008.1 hPa 0 mm - - -
1788543061 25.56° C 67% 1008.2 hPa 0 mm - - -
1788542461 28.33° C 62% 1008.4 hPa 0 mm - - -
1788541862 25.56° C 67% 1008.6 hPa 0 mm - - -
1788541262 26.67° C 65% 1008.8 hPa 0 mm - - -
1788540662 26.11° C 66% 1008.7 hPa 0 mm - - -
1788540061 27.22° C 65% 1008.7 hPa 0 mm - - -
1788539461 25.56° C 68% 1009.1 hPa 0 mm - - -
1788538861 26.11° C 69% 1009.2 hPa 0 mm - - -
1788538261 25° C 73% 1009.1 hPa 0 mm - - -
1788537661 25° C 74% 1009.2 hPa 0 mm - - -
1788537061 25.56° C 73% 1009.4 hPa 0 mm - - -
1788536461 25.56° C 73% 1009.3 hPa 0 mm - - -
1788535861 25° C 75% 1009.5 hPa 0 mm - - -
1788535262 24.44° C 78% 1009.7 hPa 0 mm - - -
1788534662 25° C 77% 1009.5 hPa 0 mm - - -
1788534062 23.89° C 80% 1009.7 hPa 0 mm - - -
1788533461 23.33° C 82% 1009.7 hPa 0 mm - - -
1788532861 23.33° C 83% 1010 hPa 0 mm - - -
1788532261 23.33° C 85% 1009.9 hPa 0 mm - - -
1788531661 22.78° C 89% 1010.1 hPa 0 mm - - -
1788531061 22.22° C 94% 1010.1 hPa 0 mm - - -
1788530461 21.67° C 96% 1010.1 hPa 0 mm - - -
1788529861 20.56° C 99% 1010.2 hPa 0 mm - - -

* Rain latest hour (hover to see other rain measurements)
** Current wind speed in m/s (hover to see current wind gust speed)